Time,TemperatureF,DewpointF,PressureIn,WindDirection,WindDirectionDegrees,WindSpeedMPH,WindSpeedGustMPH,Humidity,HourlyPrecipIn,Conditions,Clouds,dailyrainin,SolarRadiationWatts/m^2,SoftwareType,DateUTC
2013-05-23 00:02:00,34.0,34.0,-100.00,SSW,206,7.0,14.0,99,0.04,,,-99.99,0.000000,,2013-05-23 07:02:00,
2013-05-23 00:32:00,34.0,34.0,-100.00,South,174,6.0,13.0,99,0.00,,,-99.99,0.000000,,2013-05-23 07:32:00,
2013-05-23 00:42:00,34.0,34.0,-100.00,South,174,6.0,13.0,99,0.00,,,-99.99,0.000000,,2013-05-23 07:42:00,
2013-05-23 00:59:00,34.0,34.0,-100.00,South,174,6.0,13.0,99,0.00,,,-99.99,0.000000,,2013-05-23 07:59:00,
2013-05-23 01:32:00,34.0,34.0,-100.00,WSW,238,3.0,9.0,99,0.00,,,-99.99,0.000000,,2013-05-23 08:32:00,
2013-05-23 01:42:00,34.0,34.0,-100.00,WSW,238,3.0,9.0,99,0.00,,,-99.99,0.000000,,2013-05-23 08:42:00,
2013-05-23 01:52:00,34.0,34.0,-100.00,WSW,238,3.0,9.0,99,0.00,,,-99.99,0.000000,,2013-05-23 08:52:00,
2013-05-23 02:01:00,34.0,34.0,-100.00,WSW,238,3.0,9.0,99,0.00,,,-99.99,0.000000,,2013-05-23 09:01:00,
2013-05-23 02:33:00,33.0,33.0,-100.00,SSE,163,2.0,7.0,99,0.01,,,-99.99,0.000000,,2013-05-23 09:33:00,
2013-05-23 02:42:00,33.0,33.0,-100.00,SSE,163,2.0,7.0,99,0.01,,,-99.99,0.000000,,2013-05-23 09:42:00,
2013-05-23 02:53:00,33.0,33.0,-100.00,SSE,163,2.0,7.0,99,0.01,,,-99.99,0.000000,,2013-05-23 09:53:00,
2013-05-23 03:02:00,33.0,33.0,-100.00,SSE,163,2.0,7.0,99,0.01,,,-99.99,0.000000,,2013-05-23 10:02:00,
2013-05-23 03:32:00,32.0,32.0,-100.00,ESE,105,0.0,4.0,99,0.00,,,-99.99,0.000000,,2013-05-23 10:32:00,
2013-05-23 03:42:00,32.0,32.0,-100.00,ESE,105,0.0,4.0,99,0.00,,,-99.99,0.000000,,2013-05-23 10:42:00,
2013-05-23 03:52:00,32.0,32.0,-100.00,ESE,105,0.0,4.0,99,0.00,,,-99.99,0.000000,,2013-05-23 10:52:00,
2013-05-23 04:02:00,32.0,32.0,-100.00,ESE,105,0.0,4.0,99,0.00,,,-99.99,0.000000,,2013-05-23 11:02:00,
2013-05-23 04:32:00,33.0,33.0,-100.00,East,88,0.0,4.0,99,0.00,,,-99.99,0.000000,,2013-05-23 11:32:00,
2013-05-23 04:42:00,33.0,33.0,-100.00,East,88,0.0,4.0,99,0.00,,,-99.99,0.000000,,2013-05-23 11:42:00,
2013-05-23 04:52:00,33.0,33.0,-100.00,East,88,0.0,4.0,99,0.00,,,-99.99,0.000000,,2013-05-23 11:52:00,
2013-05-23 05:01:00,33.0,33.0,-100.00,East,88,0.0,4.0,99,0.00,,,-99.99,0.000000,,2013-05-23 12:01:00,
2013-05-23 05:32:00,34.0,34.0,-100.00,West,265,0.0,5.0,99,0.00,,,-99.99,0.000000,,2013-05-23 12:32:00,
2013-05-23 05:42:00,34.0,34.0,-100.00,West,265,0.0,5.0,99,0.00,,,-99.99,0.000000,,2013-05-23 12:42:00,
2013-05-23 05:52:00,34.0,34.0,-100.00,West,265,0.0,5.0,99,0.00,,,-99.99,0.000000,,2013-05-23 12:52:00,
2013-05-23 06:01:00,34.0,34.0,-100.00,West,265,0.0,5.0,99,0.00,,,-99.99,0.000000,,2013-05-23 13:01:00,
2013-05-23 06:32:00,36.0,36.0,-100.00,NE,52,2.0,7.0,99,0.00,,,-99.99,8.000000,,2013-05-23 13:32:00,
2013-05-23 06:42:00,36.0,36.0,-100.00,NE,52,2.0,7.0,99,0.00,,,-99.99,8.000000,,2013-05-23 13:42:00,
2013-05-23 06:52:00,36.0,36.0,-100.00,NE,52,2.0,7.0,99,0.00,,,-99.99,8.000000,,2013-05-23 13:52:00,
2013-05-23 07:01:00,36.0,36.0,-100.00,NE,52,2.0,7.0,99,0.00,,,-99.99,8.000000,,2013-05-23 14:01:00,
2013-05-23 07:32:00,38.0,38.0,-100.00,East,80,4.0,9.0,99,0.00,,,-99.99,30.000000,,2013-05-23 14:32:00,
2013-05-23 07:42:00,38.0,38.0,-100.00,East,80,4.0,9.0,99,0.00,,,-99.99,30.000000,,2013-05-23 14:42:00,
2013-05-23 07:52:00,38.0,38.0,-100.00,East,80,4.0,9.0,99,0.00,,,-99.99,30.000000,,2013-05-23 14:52:00,
2013-05-23 08:01:00,38.0,38.0,-100.00,East,80,4.0,9.0,99,0.00,,,-99.99,30.000000,,2013-05-23 15:01:00,
2013-05-23 08:33:00,44.0,39.0,-100.00,East,95,0.0,7.0,82,0.00,,,-99.99,262.000000,,2013-05-23 15:33:00,
2013-05-23 09:34:00,49.0,42.0,-100.00,ESE,123,1.0,6.0,76,0.00,,,-99.99,484.000000,,2013-05-23 16:34:00,
2013-05-23 10:02:00,49.0,42.0,-100.00,ESE,123,1.0,6.0,76,0.00,,,-99.99,484.000000,,2013-05-23 17:02:00,
2013-05-23 10:33:00,52.0,43.0,-100.00,WSW,248,0.0,6.0,72,0.00,,,0.21,597.000000,,2013-05-23 17:33:00,
2013-05-23 11:32:00,45.0,43.0,-100.00,SSW,210,0.0,4.0,91,0.00,,,0.21,223.000000,,2013-05-23 18:32:00,
2013-05-23 11:42:00,45.0,43.0,-100.00,SSW,210,0.0,4.0,91,0.00,,,0.21,223.000000,,2013-05-23 18:42:00,
2013-05-23 11:52:00,45.0,43.0,-100.00,SSW,210,0.0,4.0,91,0.00,,,0.21,223.000000,,2013-05-23 18:52:00,
2013-05-23 12:01:00,45.0,43.0,-100.00,SSW,210,0.0,4.0,91,0.00,,,0.21,223.000000,,2013-05-23 19:01:00,
2013-05-23 12:32:00,42.0,40.0,-100.00,WNW,302,0.0,5.0,92,0.00,,,0.21,181.000000,,2013-05-23 19:32:00,
2013-05-23 12:42:00,42.0,40.0,-100.00,WNW,302,0.0,5.0,92,0.00,,,0.21,181.000000,,2013-05-23 19:42:00,
2013-05-23 12:52:00,42.0,40.0,-100.00,WNW,302,0.0,5.0,92,0.00,,,0.21,181.000000,,2013-05-23 19:52:00,
2013-05-23 13:02:00,42.0,40.0,-100.00,WNW,302,0.0,5.0,92,0.00,,,0.21,181.000000,,2013-05-23 20:02:00,
2013-05-23 13:32:00,45.0,42.0,-100.00,NW,311,0.0,6.0,90,0.00,,,0.21,260.000000,,2013-05-23 20:32:00,
2013-05-23 13:42:00,45.0,42.0,-100.00,NW,311,0.0,6.0,90,0.00,,,0.21,260.000000,,2013-05-23 20:42:00,
2013-05-23 13:52:00,45.0,42.0,-100.00,NW,311,0.0,6.0,90,0.00,,,0.21,260.000000,,2013-05-23 20:52:00,
2013-05-23 14:01:00,45.0,42.0,-100.00,NW,311,0.0,6.0,90,0.00,,,0.21,260.000000,,2013-05-23 21:01:00,
2013-05-23 14:33:00,47.0,44.0,-100.00,West,275,0.0,4.0,88,0.00,,,0.21,270.000000,,2013-05-23 21:33:00,
2013-05-23 14:43:00,47.0,44.0,-100.00,West,275,0.0,4.0,88,0.00,,,0.21,270.000000,,2013-05-23 21:43:00,
2013-05-23 14:53:00,47.0,44.0,-100.00,West,275,0.0,4.0,88,0.00,,,0.21,270.000000,,2013-05-23 21:53:00,
2013-05-23 15:02:00,47.0,44.0,-100.00,West,275,0.0,4.0,88,0.00,,,0.21,270.000000,,2013-05-23 22:02:00,
2013-05-23 15:33:00,45.0,43.0,-100.00,South,190,0.0,4.0,94,0.00,,,-99.99,229.000000,,2013-05-23 22:33:00,
2013-05-23 15:42:00,45.0,43.0,-100.00,South,190,0.0,4.0,94,0.00,,,-99.99,229.000000,,2013-05-23 22:42:00,
2013-05-23 15:52:00,45.0,43.0,-100.00,South,190,0.0,4.0,94,0.00,,,-99.99,229.000000,,2013-05-23 22:52:00,
2013-05-23 16:01:00,45.0,43.0,-100.00,South,190,0.0,4.0,94,0.00,,,-99.99,229.000000,,2013-05-23 23:01:00,
2013-05-23 16:32:00,44.0,42.0,-100.00,WNW,302,3.0,7.0,92,0.00,,,0.21,122.000000,,2013-05-23 23:32:00,
2013-05-23 16:42:00,44.0,42.0,-100.00,WNW,302,3.0,7.0,92,0.00,,,0.21,122.000000,,2013-05-23 23:42:00,
2013-05-23 16:52:00,44.0,42.0,-100.00,WNW,302,3.0,7.0,92,0.00,,,0.21,122.000000,,2013-05-23 23:52:00,
2013-05-23 17:01:00,44.0,42.0,-100.00,WNW,302,3.0,7.0,92,0.00,,,0.21,122.000000,,2013-05-24 00:01:00,
2013-05-23 17:32:00,47.0,41.0,-100.00,WNW,282,0.0,5.0,79,0.00,,,-99.99,338.000000,,2013-05-24 00:32:00,
2013-05-23 17:42:00,47.0,41.0,-100.00,WNW,282,0.0,5.0,79,0.00,,,-99.99,338.000000,,2013-05-24 00:42:00,
2013-05-23 17:52:00,47.0,41.0,-100.00,WNW,282,0.0,5.0,79,0.00,,,-99.99,338.000000,,2013-05-24 00:52:00,
2013-05-23 18:01:00,47.0,41.0,-100.00,WNW,282,0.0,5.0,79,0.00,,,-99.99,338.000000,,2013-05-24 01:01:00,
2013-05-23 18:32:00,45.0,40.0,-100.00,South,179,1.0,7.0,84,0.00,,,0.21,185.000000,,2013-05-24 01:32:00,
2013-05-23 18:42:00,45.0,40.0,-100.00,South,179,1.0,7.0,84,0.00,,,0.21,185.000000,,2013-05-24 01:42:00,
2013-05-23 18:52:00,45.0,40.0,-100.00,South,179,1.0,7.0,84,0.00,,,0.21,185.000000,,2013-05-24 01:52:00,
2013-05-23 19:01:00,45.0,40.0,-100.00,South,179,1.0,7.0,84,0.00,,,0.21,185.000000,,2013-05-24 02:01:00,
2013-05-23 19:32:00,40.0,39.0,-100.00,East,90,0.0,8.0,98,0.03,,,0.24,65.000000,,2013-05-24 02:32:00,
2013-05-23 19:42:00,40.0,39.0,-100.00,East,90,0.0,8.0,98,0.03,,,0.24,65.000000,,2013-05-24 02:42:00,
2013-05-23 19:52:00,40.0,39.0,-100.00,East,90,0.0,8.0,98,0.03,,,0.24,65.000000,,2013-05-24 02:52:00,
2013-05-23 20:02:00,40.0,39.0,-100.00,East,90,0.0,8.0,98,0.03,,,0.24,65.000000,,2013-05-24 03:02:00,
2013-05-23 20:33:00,37.0,36.0,-100.00,East,99,0.0,3.0,98,0.00,,,0.23,50.000000,,2013-05-24 03:33:00,
2013-05-23 20:42:00,37.0,36.0,-100.00,East,99,0.0,3.0,98,0.00,,,0.23,50.000000,,2013-05-24 03:42:00,
2013-05-23 20:53:00,37.0,36.0,-100.00,East,99,0.0,3.0,98,0.00,,,0.23,50.000000,,2013-05-24 03:53:00,
2013-05-23 21:03:00,37.0,36.0,-100.00,East,99,0.0,3.0,98,0.00,,,0.23,50.000000,,2013-05-24 04:03:00,
2013-05-23 21:33:00,35.0,35.0,-100.00,ESE,116,0.0,4.0,99,0.00,,,0.13,10.000000,,2013-05-24 04:33:00,
2013-05-23 21:42:00,35.0,35.0,-100.00,ESE,116,0.0,4.0,99,0.00,,,0.13,10.000000,,2013-05-24 04:42:00,
2013-05-23 21:53:00,35.0,35.0,-100.00,ESE,116,0.0,4.0,99,0.00,,,0.13,10.000000,,2013-05-24 04:53:00,
2013-05-23 22:02:00,35.0,35.0,-100.00,ESE,116,0.0,4.0,99,0.00,,,0.13,10.000000,,2013-05-24 05:02:00,
2013-05-23 22:32:00,37.0,37.0,-100.00,SSE,160,1.0,5.0,99,0.00,,,0.08,0.000000,,2013-05-24 05:32:00,
2013-05-23 22:42:00,37.0,37.0,-100.00,SSE,160,1.0,5.0,99,0.00,,,0.08,0.000000,,2013-05-24 05:42:00,
2013-05-23 22:52:00,37.0,37.0,-100.00,SSE,160,1.0,5.0,99,0.00,,,0.08,0.000000,,2013-05-24 05:52:00,
2013-05-23 23:01:00,37.0,37.0,-100.00,SSE,160,1.0,5.0,99,0.00,,,0.08,0.000000,,2013-05-24 06:01:00,
2013-05-23 23:32:00,35.0,35.0,-100.00,NNE,18,0.0,4.0,99,0.00,,,0.04,0.000000,,2013-05-24 06:32:00,
2013-05-23 23:42:00,35.0,35.0,-100.00,NNE,18,0.0,4.0,99,0.00,,,0.04,0.000000,,2013-05-24 06:42:00,
2013-05-23 23:52:00,35.0,35.0,-100.00,NNE,18,0.0,4.0,99,0.00,,,0.04,0.000000,,2013-05-24 06:52:00,